Wind_Speed
26 21 15 17 18 20 25 26 27 25 29 26 29 35 35 30 32 32 37 33 29 28 25 26 27 22 22 23 26 29 32 32 33 34 30 28 27 27 24 21 28 30 26
14 11 12 12 13 19 24 22 22 27 29 27 27 26 27 37 31 29 33 34 33 29 24 29 30 26 26 24 25 30 33 30 28 31 28 27 26 22 14 11 14 12 17
13 7 7 11 12 12 16 20 24 25 30 33 35 31 29 28 32 36 35 33 33 30 30 30 30 28 25 25 25 30 30 24 22 25 23 21 26 25 20 16 15 13 16
10 13 14 16 19 21 22 23 24 23 23 26 25 27 31 30 30 31 33 33 32 33 33 33 29 26 25 24 28 25 21 15 12 11 11 12 2 23 19 14 14 12 13
5 8 12 16 19 21 23 23 24 25 26 27 26 27 26 27 31 32 33 33 35 35 35 30 28 26 25 23 20 14 11 12 9 8 5 10 9 12 12 10 8 9 9
10 11 12 15 17 19 21 24 27 27 28 27 30 29 27 27 29 30 31 33 33 30 31 24 22 22 18 15 14 8 5 4 10 11 12 10 12 14 15 13 13 15 14
13 14 16 19 22 24 25 26 26 27 26 27 29 27 28 26 28 29 28 25 29 26 23 22 21 17 14 12 9 9 10 9 8 4 5 9 12 13 14 16 15 13 11
16 18 21 23 26 28 29 30 31 30 28 29 29 29 28 27 27 29 27 25 23 23 23 20 18 16 12 7 7 5 6 8 6 4 6 7 8 11 12 11 10 11 10
18 20 20 21 24 27 28 29 28 29 28 27 29 27 29 26 26 26 27 28 25 23 22 19 20 19 15 9 9 7 6 8 8 8 8 9 10 12 12 12 11 10 9
16 18 20 21 22 24 24 24 26 27 25 26 26 28 25 25 24 24 26 28 24 25 24 23 23 19 15 13 13 9 6 8 7 5 7 9 10 10 11 11 12 10 10
16 16 17 18 19 20 21 22 24 21 20 23 24 22 21 19 20 21 21 20 27 29 25 26 25 19 17 18 16 13 7 8 8 8 10 10 11 11 9 7 8 9 10
16 18 18 19 22 22 20 21 22 19 17 15 17 15 16 14 13 17 17 23 27 27 26 27 24 23 19 21 18 14 10 5 13 16 16 15 13 11 7 2 1 8 9
18 18 20 21 24 25 21 20 20 18 14 12 12 12 11 13 13 12 20 26 21 26 30 23 21 20 23 22 18 15 12 17 15 15 10 11 13 9 3 2 7 6 4
17 20 23 23 24 27 27 24 20 18 15 6 7 7 10 10 12 14 13 21 21 21 17 17 15 16 16 18 18 16 17 11 13 15 23 18 10 7 7 3 5 4 3
17 18 21 23 22 22 24 26 25 21 17 12 6 5 6 7 8 8 11 16 17 14 17 15 18 20 22 18 16 12 10 12 16 16 13 10 7 8 6 4 6 4 2
21 21 22 20 22 18 17 17 19 17 15 11 4 7 15 17 14 14 17 19 16 14 17 15 16 18 20 18 15 13 11 13 10 11 10 7 8 9 10 4 5 8 6
16 19 22 26 26 21 16 16 14 15 15 16 15 16 14 13 16 20 21 23 22 18 20 22 18 18 17 15 13 12 9 8 5 10 9 8 9 6 6 8 6 5 9
9 12 16 19 23 23 21 16 17 19 20 19 16 14 11 9 10 12 14 17 8 12 12 11 9 10 13 14 11 10 7 3 6 11 10 8 7 7 7 7 8 10 10
4 5 7 10 12 15 19 18 16 14 13 15 16 17 17 16 16 14 14 14 15 14 9 11 12 10 9 12 11 10 5 6 7 10 8 9 6 7 7 7 6 5 7
0 2 5 2 5 4 8 11 12 13 13 13 18 17 14 15 12 8 10 8 8 8 5 4 3 9 13 12 11 5 3 4 6 5 7 9 8 7 8 8 6 8 8
4 4 2 6 5 2 1 5 7 7 8 4 4 6 7 6 5 4 3 3 2 3 3 2 4 4 1 5 6 7 3 1 3 3 3 4 6 8 9 10 10 10 11
8 7 9 8 7 6 6 8 10 8 8 6 4 2 3 4 3 2 3 2 5 3 3 3 3 4 7 7 9 9 9 2 3 5 5 6 7 9 10 11 11 14 18
10 9 11 6 6 5 2 5 8 6 6 5 2 2 4 4 5 3 5 4 5 7 3 3 5 8 7 9 7 4 6 6 7 10 11 13 12 13 16 17 16 21 22
12 7 9 8 5 3 4 6 4 5 7 3 1 3 4 3 5 8 4 2 2 2 2 4 5 6 6 5 6 6 7 9 11 12 12 12 15 17 19 22 25 24 22
6 6 10 12 5 3 4 2 4 5 6 4 5 8 8 3 6 3 4 5 4 6 7 8 10 10 9 9 11 14 13 11 15 14 14 16 20 23 26 27 25 21 20
8 8 12 6 6 4 6 6 6 5 5 6 8 5 4 9 8 8 8 6 5 9 9 11 10 10 12 14 14 11 12 15 16 15 19 22 25 25 21 19 19 20 21
Wind_Direction
214 216 235 253 265 269 254 273 272 277 281 279 272 269 262 268 266 260 251 252 256 262 252 257 259 262 263 272 276 283 285 283 278 280 274 268 256 259 264 253 253 255 235
192 221 247 230 260 256 257 267 274 275 285 289 281 276 273 254 262 256 252 247 253 256 260 265 263 255 262 272 290 294 292 289 281 274 269 261 255 257 249 232 218 211 200
166 177 215 239 250 251 256 262 270 276 274 275 272 271 272 264 257 258 254 252 252 253 251 249 255 259 267 284 292 293 299 293 281 274 272 263 251 246 215 211 221 215 199
205 211 219 234 248 258 265 269 271 272 273 273 273 269 265 264 258 254 251 249 248 247 251 249 257 260 273 282 289 293 296 306 290 268 260 254 8 162 183 199 204 201 183
261 252 257 263 269 271 272 275 277 276 275 270 273 274 270 264 257 254 253 249 247 247 248 250 256 266 277 280 282 289 292 300 271 232 211 168 175 166 177 181 206 215 192
312 304 299 295 290 287 286 283 280 278 280 284 274 267 267 262 265 261 254 255 252 244 253 252 256 266 268 260 268 271 281 252 204 167 143 157 167 174 180 175 187 192 183
310 301 295 293 292 292 291 290 287 282 281 282 283 278 266 261 263 259 259 254 245 252 245 247 254 250 243 252 258 247 218 206 196 207 196 184 188 189 191 183 184 195 200
294 299 301 300 297 297 296 293 289 283 277 271 273 279 268 259 258 253 244 253 238 242 248 240 232 234 227 252 230 204 183 189 189 184 163 182 189 193 190 197 195 190 183
309 310 309 308 309 311 311 307 300 291 280 280 266 269 269 265 256 252 248 243 231 233 235 222 213 214 227 220 208 172 189 182 162 129 155 161 168 177 178 177 175 160 151
329 326 324 321 320 320 319 318 312 303 291 276 280 263 270 268 252 251 250 235 228 218 215 214 212 210 215 225 203 196 183 166 166 169 168 166 162 170 170 168 163 172 181
341 337 336 334 332 333 331 325 321 317 296 283 282 267 270 266 255 255 232 216 216 210 210 208 206 209 215 196 197 201 206 172 140 134 141 138 143 158 162 177 198 213 193
3 358 358 357 353 344 342 344 339 332 322 303 293 280 264 262 249 239 230 211 211 218 211 213 216 206 205 189 188 197 197 191 142 134 131 141 149 168 160 163 240 213 228
8 7 2 1 3 5 358 350 346 352 340 314 291 267 257 242 239 237 221 207 209 211 205 208 218 198 189 184 184 192 192 174 167 166 173 179 171 183 219 282 138 126 104
13 16 17 14 5 8 10 13 1 11 4 343 327 283 247 221 213 263 240 218 224 206 195 168 180 180 183 185 189 180 180 194 196 184 173 169 176 173 185 191 145 149 127
21 19 28 26 16 14 20 22 20 12 7 346 323 222 213 197 181 216 229 231 225 172 156 144 153 152 148 144 144 148 173 163 152 154 167 187 195 165 169 172 172 177 214
43 44 38 32 39 37 30 31 41 34 24 20 66 128 114 124 133 145 150 142 139 153 122 157 160 163 168 168 170 174 182 183 170 168 167 170 159 169 187 186 167 183 189
47 50 50 46 44 41 38 42 59 61 66 75 85 93 105 129 121 130 128 123 127 149 153 166 167 166 165 164 157 156 167 187 163 171 165 169 185 169 200 202 208 198 205
24 32 42 45 46 50 48 52 73 66 64 64 72 83 94 117 114 120 135 138 105 94 117 127 139 172 164 165 154 153 163 169 191 190 189 178 186 195 196 191 229 235 223
331 330 23 29 38 49 52 59 60 58 65 74 82 87 96 113 124 126 119 120 116 80 98 77 108 108 118 156 149 161 195 209 190 193 208 196 196 216 212 216 242 245 230
85 18 353 337 5 28 45 43 59 64 71 81 88 77 87 110 101 70 115 123 119 130 106 111 162 164 166 193 207 174 147 151 187 201 207 212 211 226 227 234 242 254 258
250 238 319 282 287 275 270 325 349 24 27 25 68 78 78 63 20 324 35 349 351 92 109 51 347 212 199 174 188 191 231 232 216 206 197 229 250 252 248 246 257 264 270
246 254 261 241 231 273 275 287 316 339 350 319 304 300 19 323 343 79 72 169 202 201 127 39 9 204 215 219 225 236 229 217 193 183 210 239 251 249 255 257 264 268 265
260 259 251 229 244 238 276 292 275 302 310 309 11 357 300 12 19 344 339 281 190 164 55 211 185 207 212 208 212 233 247 249 258 260 258 267 271 266 264 262 271 279 275
230 243 228 201 223 235 234 289 311 284 273 234 325 343 350 324 331 272 293 57 120 146 202 254 251 252 266 239 238 230 256 285 290 276 276 284 292 287 281 281 287 280 274
192 207 242 194 195 236 258 258 287 294 264 273 282 295 303 295 311 281 289 273 272 251 259 261 275 260 269 263 268 270 262 276 286 278 273 279 287 291 290 292 288 281 277
231 200 195 214 165 213 244 245 274 287 293 297 275 266 299 268 282 282 273 262 284 283 277 272 261 255 259 257 271 261 282 292 278 279 289 293 296 297 293 287 281 273 271
Height
1493 1497 1500 1501 1502 1502 1502 1501 1501 1501 1500 1499 1500 1501 1502 1503 1501 1501 1501 1502 1502 1502 1504 1507 1503 1503 1506 1506 1507 1506 1504 1503 1502 1499 1500 1498 1498 1498 1500 1501 1499 1498 1497
1497 1499 1500 1501 1500 1499 1499 1498 1497 1497 1495 1493 1494 1493 1493 1494 1494 1493 1492 1492 1494 1497 1500 1497 1502 1498 1499 1500 1500 1497 1495 1493 1493 1492 1491 1491 1491 1493 1495 1495 1494 1494 1495
1495 1497 1499 1498 1496 1495 1495 1494 1493 1492 1490 1489 1488 1487 1486 1486 1485 1486 1487 1485 1487 1489 1491 1490 1494 1490 1493 1494 1492 1489 1487 1485 1484 1485 1483 1484 1484 1485 1488 1489 1489 1491 1492
1494 1495 1494 1495 1494 1492 1490 1489 1487 1486 1485 1483 1481 1479 1479 1479 1478 1478 1478 1479 1480 1481 1482 1483 1483 1484 1486 1486 1484 1482 1483 1479 1478 1479 1479 1477 1477 1458 1476 1484 1486 1487 1491
1493 1494 1493 1491 1490 1488 1485 1483 1481 1478 1477 1476 1473 1472 1471 1470 1470 1470 1472 1472 1472 1474 1475 1476 1476 1478 1480 1480 1479 1478 1477 1476 1478 1477 1475 1474 1475 1476 1478 1484 1488 1491 1493
1491 1491 1489 1486 1485 1483 1479 1476 1473 1470 1468 1468 1466 1464 1462 1461 1462 1463 1465 1465 1465 1466 1467 1471 1471 1473 1473 1474 1475 1474 1474 1474 1476 1475 1475 1475 1477 1479 1480 1481 1487 1491 1492
1487 1486 1483 1479 1477 1474 1471 1468 1465 1463 1461 1460 1457 1456 1455 1454 1452 1455 1456 1458 1460 1462 1465 1466 1466 1467 1470 1471 1471 1471 1471 1473 1474 1475 1475 1477 1478 1479 1481 1483 1486 1490 1491
1483 1480 1477 1474 1470 1466 1462 1459 1456 1454 1452 1451 1450 1449 1447 1447 1446 1447 1449 1451 1453 1457 1459 1461 1463 1464 1467 1468 1468 1468 1469 1471 1472 1473 1474 1476 1479 1481 1483 1484 1486 1488 1488
1478 1474 1471 1467 1461 1457 1453 1449 1445 1443 1441 1440 1441 1439 1439 1439 1439 1441 1442 1444 1446 1451 1454 1456 1458 1461 1464 1466 1466 1467 1468 1469 1471 1472 1474 1475 1478 1481 1482 1484 1485 1487 1488
1474 1471 1466 1462 1456 1452 1446 1442 1437 1433 1430 1431 1430 1431 1430 1430 1432 1433 1435 1437 1440 1444 1448 1452 1455 1458 1461 1463 1465 1467 1469 1470 1470 1471 1474 1476 1478 1481 1483 1483 1484 1486 1487
1471 1467 1462 1457 1454 1447 1442 1436 1432 1427 1424 1423 1423 1423 1424 1424 1426 1427 1428 1430 1434 1436 1442 1447 1451 1455 1457 1460 1463 1467 1469 1470 1470 1470 1473 1477 1478 1481 1483 1485 1486 1487 1487
1469 1465 1459 1454 1450 1444 1438 1433 1428 1423 1419 1418 1419 1419 1419 1420 1422 1424 1426 1428 1430 1436 1437 1442 1447 1451 1453 1457 1461 1465 1468 1469 1471 1471 1473 1477 1480 1482 1484 1485 1485 1485 1484
1467 1462 1458 1453 1447 1442 1435 1430 1426 1420 1417 1416 1416 1416 1417 1418 1419 1422 1423 1423 1424 1429 1432 1437 1443 1447 1451 1455 1460 1464 1467 1468 1468 1470 1472 1475 1477 1482 1482 1482 1484 1484 1483
1465 1461 1457 1452 1446 1442 1436 1430 1427 1422 1419 1419 1418 1417 1417 1418 1419 1421 1423 1425 1428 1430 1435 1435 1442 1447 1452 1455 1457 1462 1467 1467 1467 1467 1472 1476 1478 1479 1480 1482 1483 1484 1485
1465 1461 1457 1453 1448 1444 1438 1435 1430 1426 1424 1423 1420 1419 1418 1418 1419 1421 1423 1424 1426 1428 1436 1437 1443 1447 1450 1456 1457 1462 1469 1468 1467 1468 1472 1474 1474 1477 1480 1482 1483 1483 1484
1467 1462 1458 1454 1450 1446 1444 1440 1436 1434 1430 1428 1426 1423 1422 1421 1422 1424 1425 1427 1430 1433 1435 1446 1448 1450 1452 1453 1458 1459 1469 1469 1467 1468 1471 1472 1475 1476 1478 1481 1482 1482 1483
1469 1465 1461 1458 1455 1451 1449 1445 1442 1440 1438 1435 1433 1431 1431 1430 1431 1431 1432 1432 1435 1439 1442 1447 1450 1452 1456 1458 1460 1464 1468 1468 1466 1469 1471 1472 1474 1475 1477 1479 1481 1482 1482
1469 1467 1464 1462 1459 1457 1454 1452 1449 1447 1444 1442 1440 1439 1438 1439 1438 1438 1439 1440 1440 1441 1442 1446 1450 1452 1455 1459 1461 1465 1467 1467 1468 1470 1471 1472 1473 1474 1475 1477 1479 1480 1481
1470 1468 1466 1465 1463 1461 1460 1458 1456 1453 1450 1446 1446 1445 1444 1443 1442 1443 1444 1446 1447 1449 1449 1453 1453 1454 1456 1460 1462 1467 1467 1467 1467 1469 1470 1470 1471 1473 1472 1474 1476 1477 1478
1469 1467 1466 1465 1465 1463 1462 1461 1460 1458 1456 1453 1451 1451 1450 1450 1449 1449 1449 1451 1451 1453 1454 1454 1456 1458 1458 1460 1463 1465 1467 1467 1467 1467 1467 1468 1469 1471 1470 1472 1472 1473 1473
1467 1467 1467 1466 1465 1463 1463 1462 1461 1460 1459 1457 1455 1454 1453 1453 1452 1453 1452 1453 1454 1453 1453 1455 1457 1457 1458 1460 1461 1464 1464 1464 1465 1464 1465 1467 1468 1468 1468 1469 1469 1467 1469
1465 1465 1465 1465 1465 1463 1462 1461 1461 1460 1459 1457 1457 1456 1455 1454 1455 1454 1454 1454 1455 1455 1456 1456 1456 1458 1459 1460 1463 1463 1463 1463 1462 1463 1465 1465 1466 1466 1466 1466 1466 1466 1466
1462 1462 1463 1464 1464 1464 1463 1462 1461 1460 1459 1458 1457 1456 1455 1455 1454 1453 1454 1454 1455 1455 1455 1455 1456 1458 1459 1460 1461 1461 1461 1462 1462 1462 1462 1462 1462 1462 1462 1462 1462 1462 1460
1459 1460 1461 1461 1462 1462 1462 1461 1460 1459 1458 1457 1457 1456 1456 1456 1455 1455 1454 1454 1453 1454 1455 1456 1457 1457 1458 1458 1458 1459 1459 1459 1459 1458 1459 1458 1458 1457 1457 1455 1454 1453 1451
1457 1457 1458 1460 1460 1461 1460 1460 1459 1458 1457 1456 1456 1456 1455 1455 1453 1453 1453 1453 1453 1454 1454 1455 1455 1455 1456 1455 1456 1456 1455 1455 1455 1454 1453 1453 1452 1450 1448 1446 1444 1443 1443
1453 1455 1457 1457 1457 1459 1458 1458 1457 1456 1455 1455 1455 1453 1453 1451 1452 1452 1451 1451 1451 1452 1451 1452 1452 1452 1452 1451 1451 1452 1452 1451 1450 1449 1447 1445 1443 1441 1439 1438 1437 1436 1435